Weather observations for the past three days for
Shaw Air Force Base
Imperial (Metric)
Date Time (edt) Wind (mph) Vis. (mi.) Weather Sky Cond. Temperature (ºF) Relative Humidity Wind Chill (°F) Heat Index (°F) Pressure Precipitation (in)
Air Dwpt 6 hour altimeter (in) sea level (mb) 1 hr 3 hr 6 hr
Max. Min.
12 07:59 N 6 10.00 Mostly Cloudy BKN015 BKN022 78.4 73.2 79.9 77.4 84% 81 30.01 1016.1
12 07:55 N 6 10.00 Mostly Cloudy BKN015 BKN022 77.2 55.2 79.9 77.4 47% 79 30.01 1016.1
12 06:55 N 8 10.00 Mostly Cloudy SCT014 BKN060 78.3 72.7 83% 81 29.98 1015.1
12 05:55 NE 5 10.00 Overcast FEW049 OVC095 78.8 71.6 79% 82 29.98 1015.1
12 04:55 NE 6 10.00 Overcast SCT065 OVC090 77.7 71.8 82% 80 29.97 1014.8
12 03:55 NW 3 10.00 Overcast SCT060 OVC090 79.3 71.1 76% 82 29.97 1014.7
12 02:55 NE 3 10.00 Mostly Cloudy BKN110 77.9 71.6 81% 80 29.96 1014.4
12 01:55 NE 5 10.00 Overcast SCT065 OVC110 78.8 71.6 86.7 77.4 79% 82 29.98 1015.1
12 00:55 Calm 10.00 Overcast OVC100 79.3 70.7 75% 82 29.98 1015.1
11 23:55 NE 5 10.00 Partly Cloudy SCT100 78.3 69.3 74% 81 29.98 1015.1
11 22:55 NE 5 10.00 Fair CLR 79.3 69.4 72% 82 29.97 1014.8
11 21:55 NE 5 10.00 Fair CLR 80.8 68.4 66% 84 29.96 1014.4
11 20:55 NE 6 10.00 Mostly Cloudy SCT070 BKN200 83.5 67.6 59% 86 29.96 1014.4
11 19:55 NE 9 10.00 Mostly Cloudy SCT065 BKN200 86.9 67.1 94.3 86.9 52% 90 29.95 1014.1
11 18:55 E 13 10.00 Mostly Cloudy SCT070 BKN200 90.1 67.6 48% 94 29.93 1013.4
11 17:55 NE 9 10.00 Mostly Cloudy SCT070 BKN200 90.9 68.4 48% 95 29.91 1012.7
11 16:55 NE 8 10.00 Mostly Cloudy SCT070 BKN200 91.9 66.7 44% 95 29.91 1012.7
11 15:55 NE 3 10.00 Mostly Cloudy SCT065 BKN210 92.3 67.1 44% 96 29.92 1013.0
11 14:55 NE 10 10.00 Mostly Cloudy BKN060 BKN250 91.6 67.8 46% 96 29.92 1013.0
11 13:55 NE 9 10.00 Mostly Cloudy FEW045 SCT060 BKN250 91.6 67.1 91.9 79 45% 95 29.94 1013.7
11 12:55 NE 12 G 17 10.00 Partly Cloudy SCT045 SCT095 90 66.4 46% 93 29.95 1014.1
11 11:55 NE 12 10.00 Partly Cloudy SCT036 SCT250 88.2 64.8 46% 90 29.95 1014.1
11 10:55 N 14 10.00 A Few Clouds FEW040 FEW250 86.4 63.7 47% 88 29.96 1014.4
11 09:55 NE 15 10.00 A Few Clouds FEW050 FEW250 84.6 62.6 48% 85 29.95 1014.1
11 08:55 N 14 10.00 A Few Clouds FEW065 FEW250 81.9 63.5 54% 83 29.95 1014.1
11 07:55 N 14 10.00 A Few Clouds FEW065 FEW250 78.8 63.7 80.4 75.4 60% 80 29.94 1013.7
11 06:55 N 8 10.00 Fair CLR 75.2 64.4 69% 77 29.92 1013.1
11 05:55 N 8 10.00 Fair CLR 76.1 64.8 68% 78 29.9 1012.4
11 04:55 N 8 10.00 Fair CLR 77.7 66.2 68% 80 29.88 1011.7
11 03:55 N 8 10.00 Fair CLR 78.8 68.5 71% 81 29.87 1011.3
11 02:55 NW 6 10.00 Fair CLR 79 68.4 70% 81 29.86 1011.0
11 01:55 NW 8 10.00 Fair CLR 80.4 68 92.3 79.3 66% 83 29.86 1011.0
11 00:55 W 5 10.00 Fair CLR 80.1 68.5 68% 83 29.87 1011.3
10 23:55 W 6 10.00 Fair CLR 82.2 68.7 64% 85 29.87 1011.3
10 22:55 W 7 10.00 Fair CLR 83.8 68.4 60% 87 29.86 1011.0
10 21:55 W 7 10.00 Fair CLR 86.2 68.5 56% 90 29.85 1010.7
10 20:55 SW 7 10.00 A Few Clouds FEW060 FEW250 88.5 68 51% 92 29.84 1010.3
10 19:55 SW 8 10.00 Partly Cloudy FEW060 SCT250 92.3 67.8 97.5 92.1 45% 96 29.83 1010.0
10 18:55 W 13 10.00 Partly Cloudy SCT060 SCT250 95.2 67.6 41% 100 29.83 1010.0
10 17:55 S 13 10.00 Mostly Cloudy SCT060 BKN250 96.4 70.9 44% 104 29.82 1009.6
10 16:55 W 10 10.00 Partly Cloudy SCT055 SCT250 97.2 70.9 43% 105 29.81 1009.3
10 15:55 SW 12 10.00 Partly Cloudy SCT055 SCT250 94.6 71.8 48% 103 29.82 1009.7
10 14:55 SW 10 10.00 Partly Cloudy SCT050 SCT250 95 72.7 49% 104 29.84 1010.3
10 13:55 W 9 10.00 Partly Cloudy SCT050 SCT250 94.8 70.7 95 81.3 46% 102 29.86 1011.0
10 12:55 SW 8 10.00 Partly Cloudy SCT043 SCT250 93.2 73.4 53% 103 29.86 1011.0
10 11:55 W 6 10.00 Mostly Cloudy SCT035 BKN250 89.6 74.3 61% 99 29.88 1011.7
10 10:55 W 8 10.00 Partly Cloudy FEW030 SCT250 88.7 74.8 64% 99 29.89 1012.0
10 09:55 W 6 10.00 Partly Cloudy FEW025 SCT250 86.7 76.1 71% 97 29.9 1012.4
10 08:55 W 9 10.00 Partly Cloudy FEW020 SCT250 83.7 76.5 79% 93 29.9 1012.4
10 07:55 W 7 10.00 Partly Cloudy SCT250 81.3 75.9 81.3 77.4 84% 88 29.89 1012.0
10 06:55 SW 6 10.00 Fair CLR 78.4 75.2 90% 82 29.88 1011.7
10 05:55 Calm 10.00 Mostly Cloudy BKN070 BKN080 77.9 75.6 93% 80 29.88 1011.7
10 04:55 SE 6 10.00 Fair CLR 78.3 75.7 92% 81 29.87 1011.4
10 03:55 SE 7 10.00 A Few Clouds FEW050 FEW060 78.4 75.6 91% 82 29.87 1011.4
10 02:55 NE 3 10.00 Partly Cloudy FEW044 SCT060 77.7 75.2 92% 80 29.88 1011.7
10 01:55 N 3 10.00 A Few Clouds FEW060 FEW220 77.9 75.4 86.5 77.5 92% 80 29.9 1012.4
10 00:55 Calm 10.00 Fair CLR 78.3 75 90% 81 29.9 1012.4
09 23:55 Calm 10.00 Fair CLR 78.8 75.2 89% 82 29.92 1013.1
09 22:55 E 7 10.00 Fair CLR 79.5 75.2 87% 84 29.93 1013.4
09 21:55 E 6 10.00 Fair CLR 81 76.3 86% 87 29.92 1013.1
09 20:55 SE 7 10.00 A Few Clouds FEW090 FEW220 83.3 77.5 83% 93 29.92 1013.1
09 19:55 S 8 10.00 Mostly Cloudy FEW060 BKN210 86.5 77.9 94.3 81 76% 99 29.91 1012.7 0.01
09 18:55 NE 8 10.00 Mostly Cloudy SCT060 BKN220 88.5 78.6 73% 103 29.91 1012.7
09 17:55 NE 3 10.00 Mostly Cloudy SCT050 SCT090 BKN210 87.3 78.6 76% 101 29.88 1011.7
09 16:55 NE 6 10.00 Mostly Cloudy FEW030 SCT045 BKN160 85.6 77.9 78% 98 29.89 1012.1 0.01
09 15:55 SW 7 10.00 Mostly Cloudy SCT030 BKN045 BKN090 82.4 77.7 86% 91 29.91 1012.8 0.01
09 14:55 S 14 10.00 Thunderstorm SCT032CB BKN045 BKN100 90 76.5 65% 102 29.92 1013.1
09 13:55 SE 6 10.00 Mostly Cloudy SCT040 SCT065 BKN250 93 75.4 94.1 78.4 57% 105 29.94 1013.7
09 12:55 NE 3 10.00 Mostly Cloudy SCT032 SCT050 BKN250 90.1 76.6 65% 103 29.96 1014.4
09 11:55 SE 3 10.00 Mostly Cloudy SCT025TCU SCT050 BKN250 89.6 77.5 68% 103 29.98 1015.1
09 10:55 S 3 10.00 Mostly Cloudy SCT020 BKN250 86.2 77.7 76% 98 29.98 1015.1
09 09:56 SE 3 10.00 Mostly Cloudy SCT009 BKN250 82.4 77.7 86% 91 29.98 1015.1
09 09:55 SE 3 7.00 Mostly Cloudy SCT009 BKN250 82.2 77.5 86% 91 29.98 1015.1
09 08:55 SE 3 6.00 Fog/Mist OVC006 79.7 76.5 90% 85 29.99 1015.4
Date Time (edt) Wind (mph) Vis. (mi.) Weather Sky Cond. Air Dwpt Max. Min. Relative Humidity Wind Chill (°F) Heat Index (°F) altimeter (in) sea level (mb) 1 hr 3 hr 6 hr
6 hour
Temperature (ºF) Pressure Precipitation (in)